Location: Medoc Mountain State Park
(36.2578°N, 77.8786°W)
Time: 13:55:00
(UTC-04:00)

Daily predictions for brighter satellites

Satellite Brightness Start Highest point End
(mag) Time Altitude Azimuth Time Altitude Azimuth Time Altitude Azimuth
HJ-1C 3.4 20:16:43 10° SSE 20:20:09 82° E 20:23:37 10° N
Cosmos 1315 Rocket 2.8 20:16:08 10° N 20:20:12 81° E 20:24:11 10° S
FengYun 1-2 T 4.3 20:18:04 10° SSE 20:23:43 85° ENE 20:29:24 10° NNW
ALOS 2.6 20:19:10 10° S 20:23:49 73° WSW 20:28:29 10° NNW
OAO 3 Rocket 3.3 20:19:36 10° W 20:24:26 76° S 20:29:22 10° E
Cosmos 1933 4.4 20:25:14 10° SSE 20:28:36 26° E 20:31:57 10° NNE
Cosmos 1992 Rocket 4.1 20:25:03 10° S 20:30:09 58° ESE 20:35:18 10° NNE
Cosmos 1707 Rocket 4.3 20:29:42 10° SSW 20:34:05 58° W 20:38:26 10° N
Cosmos 2026 Rocket 4.1 20:28:38 10° N 20:34:42 54° E 20:40:38 10° SSE
Cosmos 1455 3.9 20:31:28 10° SSW 20:34:58 37° W 20:38:31 10° N
FENGYUN 3A 4.3 20:33:18 10° S 20:38:33 58° W 20:43:50 10° NNW
Meteor 2-20 Rocket 4.5 20:33:14 10° N 20:39:20 63° E 20:45:23 10° SSE
Cosmos 1733 Rocket 3.6 20:36:19 10° N 20:40:30 39° E 20:44:40 10° SSE
Helios 1A 3.7 20:39:15 10° SE 20:43:08 37° ENE 20:47:04 10° N
USA 267 4.0 20:37:53 10° NE 20:44:15 58° NW 20:50:38 10° WSW
Cosmos 1862 3.8 20:41:57 10° N 20:45:48 41° E 20:49:38 10° SSE
Cosmos 1862 Rocket 3.7 20:43:33 10° S 20:47:52 52° E 20:52:14 10° NNE
Cosmos 2263 Rocket 2.2 20:54:58 10° NNW 21:00:31 66° ENE 21:05:10 15° SSE
Spot 2 Rocket 3.9 20:56:14 10° S 21:01:16 64° WSW 21:06:20 10° NNW
Cosmos 1503 Rocket 4.4 20:59:16 10° NNW 21:04:27 64° WSW 21:09:33 10° S
USA 186 1.9 21:02:56 10° S 21:05:36 62° W 21:08:32 10° NNW
SAR-Lupe-4 3.6 21:03:04 17° SSE 21:05:43 62° ENE 21:09:16 10° N
Cosmos 1939 Rocket 3.3 21:03:23 19° SE 21:05:54 43° ENE 21:09:42 10° N
Cosmos 968 Rocket 4.2 21:01:20 10° N 21:06:10 37° ENE 21:09:04 21° ESE
Resurs 1-3 4.4 21:03:00 10° S 21:07:16 51° W 21:11:33 10° NNW
Cosmos 397 4.3 21:04:01 10° NNW 21:08:09 89° ENE 21:11:00 19° SSE
Cosmos 1703 Rocket 4.3 21:06:20 20° SE 21:08:39 32° E 21:12:34 10° NNE
Cosmos 2322 Rocket 3.6 21:04:23 10° SW 21:09:38 41° WNW 21:14:56 10° N
Atlas Centaur 2 2.9 21:07:58 10° WSW 21:14:12 53° S 21:19:23 21° ESE
USA 234 4.0 21:12:08 17° E 21:16:47 42° NE 21:22:51 10° NNW
Cosmos 2360 Rocket 2.1 21:11:32 10° SSW 21:17:11 86° ESE 21:22:53 10° NNE
SJ-11-01 4.2 21:15:14 19° SSE 21:18:32 68° ENE 21:23:11 10° N
Cosmos 1825 3.4 21:15:11 10° NNW 21:18:48 42° W 21:22:24 10° SSW
COSMOS 2428 3.2 21:14:14 10° S 21:19:25 37° ESE 21:24:37 10° NE
Envisat 2.9 21:17:09 15° SSE 21:21:27 85° ENE 21:26:33 10° NNW
Cosmos 1655 Rocket 4.2 21:16:09 10° N 21:22:32 77° W 21:28:50 10° S
SAR-Lupe-1 4.0 21:21:02 25° SSE 21:23:02 89° W 21:26:38 10° NNW
CZ-4B DEB 2.5 21:22:32 36° S 21:23:38 89° WSW 21:26:41 10° NNW
Cosmos 2266 Rocket 4.4 21:17:43 10° N 21:23:45 45° E 21:27:05 25° SE
Meteor 1-29 3.2 21:20:44 10° N 21:24:11 71° WNW 21:27:35 10° SSW
Lacrosse 4 Rocket 3.2 21:23:34 10° NW 21:27:21 29° WSW 21:31:10 10° SSW
Cosmos 1408 4.5 21:24:11 10° NNW 21:27:25 29° W 21:30:36 10° SSW
Helios 1B rocket 3.2 21:23:55 10° N 21:27:56 55° WNW 21:31:56 10° SSW
Cosmos 1867 3.7 21:22:58 10° NNW 21:28:23 62° ENE 21:30:53 31° SE
H-2A R/B 3.9 21:28:32 13° ENE 21:28:58 13° ENE 21:31:19 10° NE
Milstar 3 3.6 21:23:16 10° W 21:30:44 37° SSW 21:33:52 25° SSE
ATLAS 5 CENTAUR R/B 2.4 21:25:57 10° NNW 21:32:05 79° ENE 21:35:40 29° SE
Cosmos 2221 Rocket 3.9 21:32:02 38° SE 21:33:01 44° E 21:37:14 10° NNE
Cosmos 2322 3.8 21:29:11 10° SSW 21:34:54 79° WNW 21:40:38 10° NNE
SEDSat Delta rocket 3.8 21:31:09 10° W 21:36:05 49° S 21:37:59 35° SE
Meteor 1-14 Rocket 4.4 21:32:41 10° N 21:38:19 57° E 21:40:44 34° SE
ARGOS 4.1 21:37:29 27° E 21:38:35 30° ENE 21:43:10 10° N
Cosmos 489 Rocket 4.5 21:34:29 10° NNW 21:40:53 88° ENE 21:44:32 27° SSE
ERS-1 Rocket 3.0 21:42:02 39° SE 21:43:47 64° ENE 21:48:45 10° N
SeaSat 1 4.0 21:44:57 20° ENE 21:45:49 21° NE 21:49:28 10° N
Sakura Rocket 4.1 21:43:57 10° SW 21:46:23 26° SSW 21:46:23 26° SSW
Resurs 01 Rocket 4.4 21:45:50 10° SW 21:48:29 15° W 21:51:08 10° WNW
Centaur AC-42 4.2 21:37:23 10° W 21:50:47 24° SSW 21:53:32 19° S
H-2A R/B 4.4 21:53:54 11° NE 21:53:54 11° NE 21:54:32 10° NE
Cosmos 2237 Rocket 3.9 21:58:35 17° ENE 21:58:35 17° ENE 22:00:21 10° NE
Cosmos 2333 4.1 21:52:03 13° SSW 21:57:05 73° ESE 22:02:51 10° NNE
NOSS 3-1 (C) 3.3 21:54:39 26° S 21:57:42 55° ESE 22:03:44 10° NE
YAOGAN 6 2.8 21:58:12 63° SW 21:58:26 65° W 22:02:02 10° NNW
Cosmos 2333 Rocket 3.0 22:00:04 33° ENE 22:00:04 33° ENE 22:04:05 10° NE
SPOT 5 3.2 21:59:59 46° ENE 22:00:04 46° ENE 22:04:30 10° N
Cosmos 1908 Rocket 4.1 21:57:19 10° NNW 22:01:33 55° W 22:02:58 37° SSW
Cosmos 1844 Rocket 3.1 21:56:43 10° N 22:02:03 44° ENE 22:02:44 42° E
Cosmos 2278 Rocket 3.8 21:59:06 10° N 22:03:07 19° NE 22:03:38 19° ENE
USA 229 DEB 4.3 21:57:15 10° SW 22:03:56 58° NW 22:10:46 10° NNE
USA 229 4.3 21:57:22 10° SW 22:04:02 58° NW 22:10:53 10° NNE
MetOp-A 4.0 22:04:25 56° SE 22:05:31 74° ENE 22:10:52 10° N
OAO 3 Rocket 3.8 22:03:10 10° W 22:07:39 43° SSW 22:07:39 43° SSW
Sich 1 Rocket 4.4 22:03:40 10° NNW 22:07:59 47° W 22:09:37 32° SW
CZ-4C R/B 4.1 22:03:11 10° NNW 22:09:12 28° NE 22:11:50 23° ENE
Nadezhda 2 Rocket 4.5 22:05:06 10° N 22:11:31 68° E 22:12:56 53° SE
NOSS 3-1 (A) 3.6 22:15:18 48° E 22:15:18 48° E 22:20:24 10° NE
Cosmos 1782 Rocket 3.7 22:11:51 10° NNW 22:16:13 68° W 22:16:24 67° WSW
SPOT 1/Viking Rocket 3.9 22:16:34 48° ENE 22:16:34 48° ENE 22:21:27 10° N
Cosmos 2219 Rocket 2.0 22:20:01 72° SE 22:20:15 73° ESE 22:25:52 10° NNE
Cosmos 1777 Rocket 3.8 22:16:12 10° NNW 22:21:29 88° WSW 22:21:49 79° S
Okean 1-7 3.7 22:21:00 45° WSW 22:21:50 52° W 22:26:09 10° N
USA 245 4.0 22:21:27 73° ESE 22:21:52 78° ENE 22:26:49 10° N
S3M 4.4 22:28:26 44° ENE 22:28:26 44° ENE 22:33:36 10° NNE
Cosmos 1782 3.9 22:30:21 42° NNW 22:30:21 42° NNW 22:33:10 10° N
Okean 2 Rocket 3.5 22:26:49 10° NNW 22:30:55 62° WNW 22:30:55 62° WNW
Nimbus 7 Rocket 4.5 22:36:14 10° N 22:42:11 77° WNW 22:43:21 59° SW
Terra 3.2 22:45:02 29° NNE 22:45:02 29° NNE 22:47:48 10° N
Meteor 1-27 Rocket 4.1 22:46:37 55° NE 22:46:37 55° NE 22:51:03 10° NNE
USA 234 3.5 22:59:28 54° SW 22:59:38 54° SW 23:06:01 10° NW
Atlas Centaur 2 3.4 22:56:34 10° W 23:02:01 44° SW 23:02:01 44° SW
Cosmos 1745 Rocket 4.2 22:57:20 10° N 23:02:51 62° NE 23:02:51 62° NE
H-2A R/B 2.9 23:09:10 45° NW 23:09:10 45° NW 23:12:45 10° NNW
Cosmos 1980 4.3 23:13:33 53° NNW 23:13:33 53° NNW 23:18:04 10° NNE
Meteor 1-11 Rocket 4.3 23:09:27 10° N 23:13:39 53° NNW 23:13:39 53° NNW
ATLAS 5 CENTAUR R/B 4.5 23:12:32 10° WNW 23:16:19 17° WSW 23:17:15 16° WSW
NOSS 0 Rocket 4.3 23:16:17 57° WNW 23:16:32 57° WNW 23:22:36 10° NNE
Cosmos 1844 4.5 23:12:05 10° NNW 23:16:28 46° WNW 23:16:28 46° WNW
SL-16 R/B 4.1 23:22:16 21° NE 23:22:16 21° NE 23:24:07 10° NNE
SeaSat 1 3.9 23:24:45 33° WNW 23:24:45 33° WNW 23:27:46 10° NW
H-2A R/B 4.3 23:31:00 23° NNW 23:31:00 23° NNW 23:32:43 10° NNW
Cosmos 2237 Rocket 3.3 23:40:21 40° NW 23:40:21 40° NW 23:45:02 10° N
Cosmos 2333 Rocket 3.8 23:41:58 27° W 23:43:07 29° WNW 23:48:06 10° N
Cosmos 2278 Rocket 3.5 23:42:01 10° NNW 23:45:29 36° NW 23:45:29 36° NW
